Wind_Speed
28 28 27 27 27 27 26 26 26 26 26 26 26 25 25 25 24 24 24 24 24 25 25 25 25 25 25 25 25 25 25 25 25 25 25 25 25 25 25 25 25 26 26
29 29 29 29 29 29 29 29 30 29 29 29 29 29 28 28 27 26 26 26 26 26 27 27 27 27 27 27 27 27 27 26 26 26 26 26 26 26 26 26 26 26 26
32 32 32 32 32 32 32 32 33 33 33 33 32 32 32 31 31 30 28 28 29 29 29 29 29 29 28 28 28 28 28 28 28 27 27 27 27 27 27 27 27 27 27
34 34 34 35 35 36 36 36 36 36 36 36 36 36 35 35 34 33 32 31 31 31 31 31 31 31 30 30 30 30 30 30 30 29 29 29 29 29 29 29 30 30 30
37 37 37 38 38 38 38 39 39 40 40 40 40 39 39 39 39 38 36 35 34 34 34 34 34 33 33 33 32 32 32 32 32 32 32 32 32 32 32 32 32 32 32
39 40 40 41 41 41 42 42 43 43 44 44 44 44 44 43 43 42 41 40 38 37 37 37 36 36 36 36 35 35 35 35 35 35 35 35 35 35 35 35 35 35 35
42 43 43 44 44 45 45 46 47 47 47 48 48 48 48 47 46 45 45 44 43 41 41 40 39 39 39 39 38 38 38 38 38 38 38 38 39 39 39 38 38 38 38
45 45 46 46 47 48 48 49 49 50 50 51 52 52 52 50 49 49 48 48 46 45 43 43 43 43 43 42 42 41 41 41 41 40 40 41 41 42 42 42 42 42 42
46 47 48 49 49 50 51 51 52 53 53 54 55 56 55 54 53 52 51 50 49 48 47 46 46 45 45 45 45 44 44 44 44 43 43 44 44 45 45 45 45 45 45
47 49 50 51 52 52 53 54 55 55 56 57 57 58 58 57 57 55 53 52 52 51 50 49 48 48 48 47 46 47 47 47 47 46 46 47 47 47 48 48 48 48 48
48 49 51 52 53 54 55 56 57 58 59 59 59 59 59 59 59 58 56 55 54 54 53 52 51 51 51 49 49 50 50 49 49 49 49 49 49 50 51 51 51 51 51
48 49 51 52 53 55 57 58 59 60 61 61 62 61 61 61 60 58 58 57 56 55 54 54 53 53 52 52 52 52 52 51 51 51 51 52 52 52 52 54 54 54 55
47 49 50 52 54 55 57 58 60 61 62 62 62 62 61 61 60 59 59 57 56 55 56 54 55 55 55 55 54 53 52 52 52 52 53 54 54 55 56 56 56 56 57
47 48 49 51 53 54 56 57 59 60 60 60 60 60 60 60 60 59 59 58 56 55 55 54 55 57 57 56 55 54 54 53 54 54 54 55 56 57 58 58 59 59 59
45 47 48 50 51 52 54 55 56 57 57 57 57 57 58 58 58 58 57 57 57 57 57 57 57 58 57 56 55 55 55 55 56 56 56 56 57 58 59 59 60 60 61
43 45 46 48 49 51 53 53 54 54 54 54 54 54 55 56 56 55 55 55 56 57 57 57 57 57 57 57 57 59 58 56 57 57 57 58 58 59 60 60 61 61 62
42 43 43 45 47 49 50 50 50 50 49 49 48 49 49 50 51 52 53 53 55 55 56 56 57 56 56 57 59 59 59 58 58 59 60 60 60 60 60 61 61 62 62
38 39 41 42 44 45 45 45 44 44 44 43 42 42 43 44 45 46 48 49 49 50 51 53 54 55 56 57 57 58 59 60 59 59 60 60 60 60 61 61 62 62 62
35 36 38 39 40 41 41 39 37 37 37 37 36 36 36 38 39 40 42 43 44 46 48 49 51 54 54 55 56 57 57 58 58 59 59 59 60 60 60 60 61 61 62
32 34 35 36 37 37 36 35 33 32 31 30 30 31 32 33 34 35 36 38 39 41 43 46 48 50 51 53 54 55 56 57 57 58 58 58 58 59 60 60 61 61 62
30 31 32 33 33 32 31 30 29 28 26 26 25 26 27 29 29 31 32 33 36 38 41 43 46 49 50 51 52 53 55 56 56 57 57 58 58 59 60 61 61 61 61
29 29 30 30 30 29 28 27 26 25 23 23 23 23 24 24 26 27 30 32 34 37 39 42 45 46 48 49 50 52 54 55 55 56 56 57 58 58 59 59 58 58 58
28 28 28 27 26 26 25 24 23 21 20 20 19 20 21 23 24 25 28 30 33 36 38 41 43 44 46 47 50 51 53 54 54 55 54 55 56 56 56 55 55 54 54
26 27 26 25 24 23 22 22 20 19 19 19 20 20 21 22 24 26 29 31 33 36 38 41 42 44 46 48 49 51 52 53 54 54 53 52 52 52 52 52 52 51 49
25 25 24 24 23 22 21 21 20 20 20 20 20 21 23 24 26 28 30 32 35 37 39 42 44 46 48 49 50 52 52 52 52 53 52 49 48 47 47 48 48 47 45
23 23 23 22 22 22 21 21 21 21 22 22 23 25 27 28 30 31 33 35 38 40 42 44 46 48 49 50 51 51 51 51 51 50 49 46 45 44 42 44 45 45 43
Wind_Direction
290 290 290 290 290 290 289 289 288 288 288 288 288 288 288 289 289 289 290 291 291 292 292 293 292 292 292 292 292 293 294 294 295 295 296 296 296 294 292 291 289 287 284
288 289 289 289 290 289 289 288 288 288 287 286 286 286 285 285 286 287 288 288 288 289 289 290 290 291 291 291 291 291 291 292 292 293 293 294 294 294 293 291 290 288 286
287 287 288 288 287 287 287 287 287 287 287 286 285 284 284 284 284 285 285 286 286 287 287 287 288 288 288 289 289 289 289 289 289 290 290 291 291 292 292 291 290 288 286
286 287 287 287 287 286 287 286 286 286 285 284 284 283 283 283 283 282 282 283 283 284 285 285 285 286 286 285 286 286 286 287 287 287 288 288 288 288 289 290 289 288 286
285 286 286 286 286 286 286 285 284 283 283 283 282 282 282 282 281 281 281 280 281 282 282 283 283 283 283 283 283 284 284 285 285 285 286 286 286 286 286 287 287 286 285
285 285 286 285 285 285 285 284 283 282 282 282 281 281 280 280 280 280 280 279 279 279 280 280 281 281 281 281 282 282 283 283 283 284 284 284 284 284 284 284 285 284 284
284 284 284 284 284 284 284 283 283 282 282 281 281 280 279 279 279 280 279 278 278 278 278 278 278 279 279 280 280 280 281 282 282 282 283 283 283 282 282 282 282 282 282
282 283 284 284 284 284 283 283 282 282 281 281 280 280 279 279 279 278 278 278 277 278 278 278 278 278 278 279 279 279 280 281 281 281 282 283 283 282 282 281 281 280 280
282 283 283 283 283 283 282 282 282 281 280 279 279 279 279 278 277 276 277 277 277 277 278 278 278 279 278 279 279 279 279 280 280 280 281 282 283 283 282 281 281 280 279
280 281 282 282 282 283 283 282 281 280 280 279 278 278 278 277 276 276 275 275 276 277 278 278 279 279 279 279 278 278 279 280 279 280 281 281 282 283 282 281 280 280 279
280 281 281 282 282 282 282 282 281 281 280 279 278 277 276 276 275 275 275 274 275 275 276 277 278 280 280 278 279 279 279 279 280 280 281 281 282 282 282 281 280 280 279
281 281 282 282 282 282 282 282 281 281 280 279 277 276 275 274 273 273 273 273 274 274 276 277 277 278 279 279 280 280 279 280 280 281 281 282 282 282 282 282 281 281 279
282 283 283 283 284 283 283 282 282 281 280 278 277 275 274 272 271 270 270 271 272 273 274 275 277 277 279 279 280 280 280 280 281 282 283 283 282 283 283 283 282 281 280
284 285 285 286 286 285 285 284 283 282 280 279 277 276 274 272 270 268 268 268 270 271 272 274 275 276 279 280 281 280 282 281 283 284 284 284 284 284 283 282 282 281 281
286 288 289 289 289 288 288 287 286 283 280 279 278 276 273 272 270 268 267 266 267 269 270 271 273 276 278 279 279 281 282 282 284 284 284 284 284 284 284 283 282 282 281
290 291 292 292 292 291 291 290 288 285 282 280 277 275 273 272 270 267 265 265 265 267 269 271 272 275 277 278 280 283 284 284 284 284 285 285 285 285 285 284 283 282 282
293 295 296 296 296 296 295 293 290 287 283 281 279 276 274 272 270 267 265 265 265 266 269 269 272 274 276 278 280 281 283 284 285 285 286 286 286 286 285 284 284 284 283
296 299 300 300 300 300 299 297 294 290 286 282 280 276 274 272 269 268 267 266 266 268 269 270 272 275 277 280 281 282 283 285 286 286 286 286 286 286 285 285 285 285 284
300 303 304 304 304 304 303 301 299 296 290 285 281 276 275 274 271 269 268 267 267 269 270 271 273 276 278 280 282 283 286 286 287 287 287 287 287 288 287 287 287 286 285
303 306 308 308 309 308 306 303 302 299 296 290 285 281 278 276 273 270 269 269 270 271 273 274 276 279 280 282 283 285 286 287 288 289 289 289 289 289 288 288 288 287 286
306 309 310 311 312 312 310 307 306 303 299 296 293 287 281 278 276 273 273 273 273 275 277 278 279 282 283 284 285 286 288 290 290 291 291 290 290 290 290 289 288 288 288
306 310 313 315 315 314 314 312 309 305 303 300 297 293 287 283 283 280 279 278 279 280 281 281 283 285 286 287 288 290 291 291 291 291 291 291 291 291 291 291 290 290 289
307 310 311 314 317 317 318 317 316 314 311 308 305 299 295 293 292 289 286 285 285 285 286 287 289 289 290 291 292 293 293 292 292 292 292 293 293 293 292 291 291 292 292
308 311 313 314 316 319 321 322 320 317 313 312 308 304 303 301 299 296 293 293 293 292 292 292 292 293 294 295 295 295 294 294 293 293 294 294 293 294 293 293 293 293 293
308 311 313 314 315 317 318 319 320 318 315 314 312 309 307 306 304 303 301 299 298 297 296 297 297 297 297 296 296 296 296 295 295 295 295 294 294 294 294 294 295 295 294
309 311 314 315 315 315 316 318 318 317 315 313 312 311 310 309 307 306 304 303 302 301 301 300 299 299 299 299 299 298 297 296 296 295 295 295 294 294 294 294 295 296 296
Height
5847 5847 5847 5847 5846 5845 5845 5844 5843 5842 5841 5840 5839 5839 5838 5837 5836 5835 5834 5833 5831 5830 5829 5827 5826 5825 5823 5822 5821 5820 5819 5817 5816 5815 5814 5812 5811 5810 5810 5809 5808 5808 5807
5842 5841 5841 5841 5840 5839 5839 5838 5837 5837 5836 5835 5834 5833 5832 5831 5830 5830 5829 5827 5826 5825 5823 5822 5821 5819 5818 5817 5815 5814 5813 5811 5810 5809 5808 5807 5805 5804 5803 5803 5802 5801 5801
5836 5835 5835 5834 5834 5833 5832 5832 5831 5830 5829 5828 5827 5826 5825 5824 5824 5823 5823 5821 5820 5818 5817 5816 5814 5813 5812 5810 5809 5808 5806 5805 5804 5803 5802 5800 5799 5798 5797 5796 5796 5795 5794
5829 5829 5828 5827 5826 5826 5825 5824 5823 5822 5822 5821 5820 5819 5818 5817 5816 5816 5816 5815 5813 5812 5810 5809 5808 5807 5805 5804 5802 5801 5800 5798 5797 5796 5795 5794 5792 5791 5790 5789 5789 5788 5787
5822 5821 5821 5820 5819 5818 5817 5816 5815 5814 5813 5812 5811 5810 5810 5809 5808 5807 5807 5806 5806 5804 5803 5801 5800 5799 5798 5796 5795 5793 5792 5791 5790 5788 5787 5786 5785 5784 5783 5782 5781 5780 5779
5814 5813 5813 5812 5811 5810 5809 5807 5806 5805 5804 5803 5802 5801 5800 5799 5798 5797 5797 5796 5796 5795 5794 5793 5792 5790 5789 5788 5787 5785 5784 5783 5781 5780 5779 5778 5777 5776 5774 5773 5773 5772 5771
5806 5804 5804 5803 5802 5801 5799 5798 5796 5795 5794 5792 5791 5790 5790 5789 5789 5788 5786 5785 5785 5785 5784 5783 5782 5781 5780 5779 5777 5776 5775 5773 5772 5771 5770 5768 5767 5766 5765 5764 5763 5763 5762
5796 5795 5794 5793 5792 5790 5789 5788 5786 5784 5783 5781 5780 5778 5778 5778 5778 5776 5775 5774 5774 5773 5773 5773 5772 5771 5769 5768 5767 5766 5764 5763 5762 5761 5759 5758 5757 5756 5755 5754 5753 5752 5752
5787 5786 5784 5783 5781 5779 5778 5777 5775 5773 5771 5769 5767 5765 5765 5765 5765 5764 5763 5762 5761 5761 5761 5760 5760 5759 5758 5757 5755 5754 5753 5752 5751 5749 5748 5747 5746 5745 5744 5743 5742 5741 5740
5778 5776 5774 5772 5770 5768 5767 5765 5762 5760 5758 5756 5754 5753 5751 5750 5750 5750 5751 5750 5749 5749 5748 5748 5747 5747 5746 5745 5744 5742 5740 5739 5738 5737 5736 5734 5733 5732 5731 5730 5729 5728 5727
5768 5766 5763 5761 5759 5756 5754 5752 5749 5747 5744 5742 5740 5739 5737 5735 5735 5735 5736 5737 5736 5735 5735 5735 5734 5733 5732 5732 5731 5729 5727 5726 5725 5724 5723 5721 5720 5719 5718 5717 5716 5715 5714
5757 5755 5753 5750 5747 5744 5742 5739 5736 5733 5730 5727 5725 5723 5722 5721 5721 5720 5719 5721 5722 5722 5721 5721 5720 5719 5718 5718 5717 5715 5713 5711 5711 5710 5708 5707 5706 5705 5704 5702 5701 5700 5699
5746 5744 5741 5738 5735 5732 5728 5724 5721 5718 5714 5711 5708 5707 5706 5705 5705 5705 5704 5705 5706 5707 5707 5707 5706 5705 5704 5703 5702 5700 5699 5697 5696 5695 5693 5692 5691 5690 5689 5687 5686 5684 5683
5735 5732 5729 5726 5722 5718 5714 5710 5706 5702 5698 5695 5692 5690 5688 5688 5688 5689 5689 5690 5691 5692 5692 5692 5692 5690 5690 5689 5687 5686 5684 5683 5681 5680 5678 5677 5675 5674 5672 5671 5669 5668 5666
5724 5720 5717 5713 5708 5703 5699 5694 5689 5685 5681 5678 5675 5673 5671 5671 5671 5672 5673 5674 5676 5676 5678 5678 5678 5677 5675 5674 5673 5671 5670 5668 5666 5665 5663 5661 5659 5657 5655 5654 5652 5650 5649
5712 5708 5704 5699 5694 5689 5684 5678 5673 5668 5665 5662 5659 5658 5656 5656 5656 5656 5657 5659 5661 5662 5662 5664 5663 5663 5661 5660 5658 5656 5654 5653 5651 5649 5647 5645 5643 5641 5638 5636 5634 5632 5630
5701 5697 5692 5687 5681 5675 5669 5663 5658 5653 5649 5646 5644 5643 5642 5642 5642 5643 5644 5645 5647 5648 5648 5649 5649 5648 5647 5646 5644 5642 5640 5638 5635 5633 5631 5629 5626 5623 5621 5618 5616 5613 5611
5691 5686 5681 5675 5669 5663 5656 5650 5644 5640 5636 5633 5631 5630 5630 5630 5630 5630 5631 5633 5634 5635 5636 5636 5636 5635 5634 5632 5630 5627 5625 5623 5620 5617 5615 5612 5609 5606 5603 5600 5597 5594 5591
5681 5676 5671 5665 5658 5652 5645 5639 5634 5630 5626 5623 5621 5620 5620 5619 5619 5620 5621 5622 5623 5623 5624 5624 5623 5622 5620 5618 5616 5614 5610 5607 5604 5601 5598 5594 5591 5587 5584 5581 5577 5574 5571
5672 5667 5662 5656 5650 5643 5637 5631 5626 5622 5618 5615 5614 5612 5612 5611 5611 5611 5612 5612 5613 5613 5613 5612 5611 5610 5608 5605 5603 5600 5596 5592 5588 5585 5581 5577 5573 5569 5566 5562 5558 5555 5551
5664 5659 5654 5648 5642 5636 5630 5625 5620 5616 5612 5609 5607 5606 5605 5605 5604 5604 5604 5604 5604 5603 5602 5601 5600 5598 5595 5592 5589 5585 5581 5577 5572 5569 5565 5560 5556 5552 5547 5542 5538 5534 5531
5657 5652 5647 5642 5636 5630 5625 5620 5615 5611 5608 5605 5603 5601 5600 5599 5598 5598 5597 5596 5595 5594 5593 5591 5589 5585 5582 5578 5575 5570 5566 5562 5556 5553 5549 5543 5539 5533 5528 5523 5519 5515 5511
5650 5646 5641 5636 5631 5625 5620 5616 5611 5608 5604 5601 5599 5597 5596 5594 5593 5592 5590 5589 5587 5585 5583 5580 5577 5573 5569 5565 5561 5556 5551 5546 5541 5537 5533 5527 5521 5516 5510 5504 5500 5496 5492
5644 5640 5635 5630 5626 5621 5617 5612 5608 5605 5602 5599 5596 5594 5592 5590 5588 5586 5584 5581 5579 5576 5573 5570 5566 5561 5557 5552 5547 5542 5536 5531 5525 5520 5517 5512 5505 5500 5493 5487 5483 5479 5476
5638 5634 5630 5626 5621 5617 5613 5609 5605 5602 5599 5596 5593 5590 5588 5585 5582 5579 5577 5574 5570 5567 5562 5558 5553 5548 5543 5538 5532 5527 5521 5516 5510 5503 5500 5496 5491 5486 5479 5472 5467 5464 5460
5633 5629 5625 5621 5617 5613 5609 5606 5602 5599 5595 5592 5589 5586 5582 5579 5575 5572 5568 5565 5560 5556 5551 5546 5541 5535 5529 5523 5517 5511 5505 5500 5494 5489 5484 5481 5476 5472 5469 5461 5454 5450 5446